Regional Weather Roundup
Issued by NWS

Home | Current Version | Previous Version | Graphics & Text | Print | Product List | Glossary Off
Versions: 1 2 3 4 5 6 7 8 9 10 11 12 13 14 15 16 17 18 19 20 21 22 23 24 25 26 27 28 29 30 31 32 33 34 35 36 37 38 39 40 41 42 43 44 45 46 47 48 49 50

000
ASUS43 KLSX 261959
RWRMO

WEATHER SUMMARY FOR MISSOURI
NATIONAL WEATHER SERVICE SPRINGFIELD MO
200 PM CST FRI DEC 26 2014

NOTE: "FAIR" INDICATES FEW OR NO CLOUDS BELOW 12,000 FEET WITH NO
       SIGNIFICANT WEATHER AND/OR OBSTRUCTIONS TO VISIBILITY.
       CURRENT SKY AND/OR WEATHER CONDITIONS ARE NOT AVAILABLE FOR
       CHILLICOTHE AND FARMINGTON.

MOZ001>031-035>038-043-044-053-054-262100-
...NORTHERN AND WESTERN MISSOURI...

CITY           SKY/WX    TMP DP  RH WIND       PRES   REMARKS
KANSAS CTY INT CLOUDY    47  37  68 NW6       29.90S
KANSAS C DTWN  CLOUDY    54  42  64 W8        29.90S
LEE`S SUMMIT   CLOUDY    54  43  66 SW10      29.90F
ST JOSEPH      CLOUDY    38  33  82 NW5       29.95R
CHILLICOTHE      N/A     53  42  66 SW8       29.92F
KIRKSVILLE     MOSUNNY   53  41  63 SW10      29.92F

$$
MOZ066>068-077>081-088>096-101>105-262100-
...SOUTHWEST MISSOURI...

CITY           SKY/WX    TMP DP  RH WIND       PRES   REMARKS
SPRINGFIELD    CLOUDY    53  44  71 SE17      29.95F
JOPLIN         CLOUDY    58  47  66 S14       29.91F

$$
MOZ032>034-039>042-045>050-055>058-069>072-262100-
...CENTRAL MISSOURI...

CITY           SKY/WX    TMP DP  RH WIND       PRES   REMARKS
COLUMBIA       CLOUDY    60  45  57 S12       29.94F
JEFFERSON CITY PTSUNNY   61  44  53 S13G22    29.95F
ROLLA          CLOUDY    56  43  61 S16G23    29.97F
SEDALIA        CLOUDY    58  44  60 SW17      29.94S
WARRENSBURG    CLOUDY    55  43  62 S10G17    29.91F
OSAGE BEACH    CLOUDY    57  43  58 S13G23    29.97R

$$
MOZ051-052-059>065-262100-
...EAST CENTRAL MISSOURI...

CITY           SKY/WX    TMP DP  RH WIND       PRES   REMARKS
ST LOUIS INTL  MOSUNNY   61  42  49 SW14      30.02F
SPIRIT OF STL  MOSUNNY   60  42  51 S8        30.00F
ST CHARLES     MOSUNNY   59  45  59 SW14      30.01F

$$
MOZ072>076-082>087-097>100-106>115-262100-
...SOUTH CENTRAL AND SOUTHEAST MISSOURI...

CITY           SKY/WX    TMP DP  RH WIND       PRES   REMARKS
CAPE GIRARDEAU PTSUNNY   53  44  71 S16       30.13F
FARMINGTON     SUNNY     55  43  62 S18G26    30.08S
POPLAR BLUFF   CLOUDY    51  40  65 S10       30.12F
WEST PLAINS    CLOUDY    52  43  71 S10       30.05F

$$


USA.gov is the U.S. government's official web portal to all federal, state and local government web resources and services.